[[{"header":{"parameterUnit":"m.s-1","parameterCategory":1,"la1":30.2991,"la2":30.254,"lo1":-89.0895,"lo2":-89.0444,"dy":0.0017,"dx":0.0017,"nx":28,"ny":28,"refTime":"2024-08-14T21:00:00:Z","depth":0,"parameterNumber":2,"parameterNumberName":"U-component_of_WINDS"},"data":[0,0,0,0,0,0,0,0,0,0,0,0,0,0,0,0,0,0,0,0,0,0,0,0,0,0,0,0,0,0,0,0,0,0,0,0,0,0,0,0,0,0,0,0,0,0,0,0,0,0,0,0,0,0,0,0,0,0,2.0651,2.0652,0,2.0668,2.0668,2.0668,2.0575,2.0572,2.0569,2.0567,2.0585,2.0588,2.0591,0,0,0,0,0,0,0,0,0,0,0,0,0,2.0538,2.0541,2.0651,2.0652,2.0652,2.0668,2.0668,2.0668,2.0575,2.0572,2.0568,2.0565,2.0584,2.0587,2.0591,0,0,0,0,0,0,0,0,0,0,0,0,0,2.0574,2.0541,2.0651,2.0607,2.0603,2.0668,2.0668,2.0668,2.0576,2.0572,2.0568,2.0564,2.0583,2.0587,2.0591,2.07,0,0,2.0605,2.0607,0,0,0,0,0,0,0,0,2.0572,2.0579,2.0613,2.061,2.0606,2.0615,2.0635,2.0679,2.0577,2.0586,2.0567,2.0562,2.0598,2.0601,2.0613,2.0701,2.0701,2.0606,2.0608,2.061,2.0611,0,0,0,0,0,0,0,2.057,2.0577,2.0658,2.0614,2.061,2.0586,2.0587,2.0643,2.0615,2.0585,2.0578,2.0581,2.0595,2.0609,2.0613,2.0702,2.0605,2.0609,2.0612,2.0614,2.0876,2.088,0,0,0,0,0,0,2.0573,2.0576,2.0657,2.0658,2.0579,2.0591,2.0592,2.0616,2.0614,2.0609,2.0585,2.0577,2.0603,2.0608,2.0613,2.0737,2.061,2.0614,2.0617,2.0872,2.0877,2.0881,0,0,0,0,0,0,2.0571,2.0582,2.0657,2.0615,2.0623,2.0598,2.0625,2.0619,2.0632,2.0614,2.0608,2.0604,2.06,2.0607,2.0678,2.0737,2.0616,2.062,2.0867,2.0873,2.0879,2.0989,0,0,0,0,0,0,2.0568,2.0581,2.0623,2.0617,2.0626,2.0722,2.0629,2.0622,2.064,2.063,2.063,2.0626,2.0598,2.0672,2.0683,2.0741,2.0624,2.0861,2.0869,2.0877,2.098,2.0998,2.1014,0,0,0,0,0,2.0565,2.0654,2.0625,2.0635,2.0677,2.0726,2.073,2.0696,2.0645,2.0686,2.0674,2.0626,2.0729,2.068,2.0691,2.0752,2.0857,2.0867,2.0876,2.0972,2.0994,2.1013,0,0,0,0,0,0,2.0668,2.0652,2.062,2.071,2.072,2.071,2.076,2.0721,2.0745,2.0735,2.0691,2.0692,2.077,2.0768,2.0714,2.0855,2.0784,2.0797,2.0853,2.0874,2.0891,2.0889,2.0628,0,0,0,0,0,2.0701,2.0742,2.0726,2.0807,2.0813,2.0786,2.0806,2.0778,2.0786,2.079,2.0783,2.0793,2.0827,2.0851,2.0882,2.0979,2.0977,2.1026,2.1043,2.1057,2.1068,2.1117,2.1138,2.0913,2.0913,2.0913,0,0,2.077,2.0766,2.0795,2.0827,2.0831,2.0874,2.079,2.084,2.0871,2.0798,2.0864,2.0859,2.0867,2.0952,2.0989,2.0953,2.113,2.107,2.1081,2.1084,2.1129,2.115,2.1169,2.0919,2.0918,2.0917,0,0,2.0917,2.0919,2.0985,2.0991,2.0997,2.0978,2.0995,2.099,2.0984,2.1049,2.0995,2.1031,2.1092,2.1099,2.1111,2.1258,2.1215,2.127,2.1358,2.1407,2.1424,2.144,2.149,2.1509,2.1281,2.1281,2.1281,0,2.1001,2.1064,2.1024,2.1076,2.1091,2.1027,2.1092,2.11,2.1117,2.1129,2.1088,2.1161,2.1162,2.1246,2.1282,2.1294,2.131,2.1269,2.1425,2.144,2.1454,2.1502,2.1521,2.1288,2.1287,2.1286,2.1286,0,2.1166,2.121,2.1263,2.1279,2.13,2.136,2.1328,2.1355,2.1325,2.131,2.1376,2.1375,2.1403,2.1422,2.1394,2.1501,2.1478,2.1433,2.136,2.1482,2.1526,2.1545,2.1297,2.1295,2.1293,2.1291,0,0,2.1379,2.1371,2.1391,2.1396,2.1399,2.1432,2.1487,2.1514,2.1536,2.155,2.1594,2.1646,2.1603,2.1616,2.1589,2.1631,2.1746,2.158,2.1579,2.1609,2.1861,2.1895,2.1916,2.1717,2.1721,2.1723,2.186,0,2.152,2.1614,2.1579,2.1675,2.1714,2.1652,2.17,2.1707,2.1694,2.1725,2.1712,2.1748,2.169,2.1697,2.1736,2.1723,2.1795,2.1713,2.1757,2.1759,2.1755,2.194,2.1975,2.2104,2.1877,2.188,2.1882,0,2.1698,2.1717,2.1817,2.181,2.1825,2.1869,2.1889,2.192,2.1925,2.1913,2.1927,2.1889,2.1943,2.1872,2.1943,2.1888,2.1904,2.1901,2.1905,2.1906,2.1827,2.1944,2.2145,2.2164,2.1909,2.1907,2.1905,0,2.184,2.1891,2.1956,2.1964,2.1958,2.199,2.1989,2.199,2.2007,2.2026,2.2036,2.2061,2.2074,2.2094,2.2064,2.2015,2.2139,2.2066,2.2129,2.213,2.2157,2.2156,2.2361,2.2171,2.2171,2.2171,2.217,0,2.2001,2.2064,2.202,2.206,2.2128,2.2087,2.2156,2.2148,2.215,2.2186,2.2136,2.2172,2.213,2.2162,2.2139,2.22,2.2208,2.2198,2.2191,2.2202,2.2203,2.2211,2.22,2.2176,2.2174,2.2173,2.2173,0,2.2171,2.2144,2.2211,2.2199,2.2198,2.2248,2.2238,2.2274,2.2257,2.2305,2.2314,2.2288,2.2323,2.2294,2.2329,2.2313,2.2394,2.2375,2.2392,2.2386,2.245,2.2444,2.2667,2.2693,2.2488,2.249,2.2492,0,2.2275,2.2321,2.2314,2.2334,2.2336,2.237,2.2387,2.2349,2.2369,2.2377,2.2412,2.2442,2.2464,2.2522,2.2506,2.2532,2.2512,2.2588,2.2515,2.2524,2.2511,2.2507,2.2511,2.2603,2.2605,2.2607,2.2609,0,2.246,2.2444,2.247,2.2492,2.2513,2.2528,2.2539,2.2559,2.252,2.2544,2.2578,2.2595,2.2629,2.2659,2.2679,2.2678,2.2637,2.2632,2.2647,2.2658,2.2665,2.266,2.243,2.2627,2.2625,2.2624,2.2623,2.2622,2.2599,2.2636,2.2636,2.2666,2.267,2.2681,2.2714,2.27,2.2728,2.2752,2.2728,2.2769,2.2771,2.2793,2.2797,2.2828,2.2796,2.2819,2.2825,2.2831,2.2839,2.2662,2.2832,2.2831,2.2831,2.283,2.283,0,2.278,2.2776,2.2804,2.282,2.2844,2.2802,2.2812,2.2835,2.2871,2.2876,2.2898,2.2936,2.2965,2.2951,2.2975,2.3003,2.2985,2.3011,2.3007,2.3007,2.2867,2.285,2.3025,2.3025,2.3025,2.3025,2.3025,2.3025,2.2877,2.2937,2.2921,2.2982,2.2978,2.3016,2.3025,2.3035,2.3038,2.3083,2.3106,2.3096,2.3094,2.3117,2.3141,2.3136,2.3147,2.3179,2.3168,2.3037,2.3017,2.2999,2.2983,2.3182,2.3183,2.3305,2.3306,2.3307]},{"header":{"parameterUnit":"m.s-1","parameterCategory":1,"la1":30.2991,"la2":30.254,"lo1":-89.0895,"lo2":-89.0444,"dy":0.0017,"dx":0.0017,"nx":28,"ny":28,"refTime":"2024-08-14T21:00:00:Z","depth":0,"parameterNumber":3,"parameterNumberName":"V-component_of_WINDS"},"data":[0,0,0,0,0,0,0,0,0,0,0,0,0,0,0,0,0,0,0,0,0,0,0,0,0,0,0,0,0,0,0,0,0,0,0,0,0,0,0,0,0,0,0,0,0,0,0,0,0,0,0,0,0,0,0,0,0,0,0.4854,0.4855,0,0.4974,0.4976,0.4977,0.5017,0.5016,0.5016,0.5015,0.5141,0.5145,0.5149,0,0,0,0,0,0,0,0,0,0,0,0,0,0.4658,0.4661,0.4853,0.4855,0.4857,0.4974,0.4976,0.4977,0.5017,0.5016,0.5016,0.5015,0.514,0.5145,0.5149,0,0,0,0,0,0,0,0,0,0,0,0,0,0.4757,0.4662,0.4853,0.489,0.4895,0.4974,0.4976,0.4978,0.5017,0.5016,0.5015,0.5015,0.5139,0.5144,0.515,0.5202,0,0,0.5168,0.517,0,0,0,0,0,0,0,0,0.4751,0.4764,0.4883,0.4888,0.4893,0.4979,0.4953,0.5053,0.5017,0.4971,0.5015,0.5014,0.5088,0.5098,0.5123,0.5207,0.5213,0.5168,0.5172,0.5174,0.5176,0,0,0,0,0,0,0,0.4745,0.4759,0.4901,0.4885,0.4891,0.4901,0.4914,0.4972,0.5033,0.4975,0.4978,0.4991,0.5091,0.5117,0.5126,0.5215,0.5168,0.5173,0.5177,0.5179,0.5345,0.5346,0,0,0,0,0,0,0.4731,0.4753,0.4898,0.4905,0.4819,0.4905,0.492,0.4953,0.5032,0.5043,0.4992,0.4993,0.5108,0.5119,0.5131,0.5195,0.5174,0.518,0.5183,0.5344,0.5345,0.5346,0,0,0,0,0,0,0.4727,0.4744,0.4893,0.483,0.485,0.4909,0.4946,0.4955,0.4982,0.5045,0.5056,0.5007,0.5107,0.5122,0.5183,0.52,0.5182,0.5187,0.5343,0.5344,0.5345,0.5324,0,0,0,0,0,0,0.4721,0.4742,0.4762,0.483,0.4853,0.4943,0.4947,0.4958,0.4991,0.4993,0.5063,0.5073,0.5108,0.5174,0.5188,0.5207,0.5192,0.5342,0.5343,0.5345,0.5323,0.5324,0.5325,0,0,0,0,0,0.4714,0.4753,0.4763,0.478,0.488,0.4944,0.4957,0.4995,0.4992,0.5013,0.5053,0.5071,0.5195,0.518,0.5197,0.5217,0.5341,0.5343,0.5345,0.5323,0.5324,0.5325,0,0,0,0,0,0,0.4687,0.4762,0.4775,0.4837,0.4883,0.495,0.4978,0.4995,0.5045,0.5045,0.5091,0.5106,0.5162,0.5196,0.5178,0.527,0.5269,0.5274,0.5246,0.5248,0.5248,0.524,0.5197,0,0,0,0,0,0.4688,0.4733,0.4797,0.4845,0.4867,0.4918,0.4948,0.4973,0.5023,0.5044,0.5089,0.5137,0.5187,0.5219,0.5269,0.5327,0.5342,0.535,0.5351,0.5351,0.5356,0.5387,0.5391,0.5353,0.5353,0.5353,0,0,0.4691,0.4738,0.4764,0.4841,0.488,0.4925,0.4935,0.4984,0.5018,0.5052,0.5111,0.5145,0.5202,0.5261,0.529,0.5291,0.5369,0.5354,0.5353,0.5358,0.5389,0.5393,0.5396,0.5354,0.5354,0.5354,0,0,0.472,0.476,0.4804,0.4842,0.49,0.4933,0.4943,0.5007,0.503,0.509,0.5115,0.5156,0.5241,0.5281,0.5312,0.5351,0.5369,0.5366,0.5371,0.5401,0.5404,0.5407,0.542,0.5424,0.537,0.537,0.537,0,0.4717,0.4786,0.4824,0.487,0.4903,0.4933,0.4977,0.5012,0.5084,0.5105,0.5105,0.5211,0.5252,0.5319,0.5328,0.5353,0.5365,0.5359,0.54,0.5403,0.5407,0.542,0.5424,0.5369,0.5369,0.5369,0.5369,0,0.4779,0.4826,0.4854,0.4921,0.4956,0.5001,0.5045,0.5076,0.5097,0.513,0.5189,0.5238,0.5297,0.5315,0.5337,0.5385,0.5383,0.5391,0.5391,0.5409,0.5422,0.5427,0.5368,0.5368,0.5368,0.5369,0,0,0.4797,0.4881,0.489,0.492,0.4984,0.5022,0.5067,0.5123,0.5148,0.5196,0.5234,0.5304,0.531,0.5345,0.5371,0.5398,0.5424,0.5402,0.5404,0.5404,0.5478,0.5472,0.5477,0.5435,0.5436,0.5437,0.5473,0,0.4834,0.4916,0.4949,0.5015,0.5058,0.5086,0.5125,0.5169,0.5199,0.5241,0.5275,0.5323,0.5329,0.5349,0.5377,0.5415,0.5439,0.5413,0.5472,0.5473,0.5456,0.5484,0.5478,0.551,0.5478,0.5479,0.548,0,0.4889,0.4934,0.5004,0.506,0.508,0.5114,0.5167,0.5206,0.5255,0.5275,0.5312,0.5336,0.5384,0.5379,0.5445,0.5426,0.5452,0.5474,0.5476,0.5484,0.5478,0.5492,0.5521,0.5525,0.5488,0.5488,0.5487,0,0.4894,0.4972,0.5024,0.5048,0.5115,0.5139,0.5168,0.5216,0.5247,0.5292,0.5312,0.5363,0.5391,0.543,0.5467,0.546,0.5528,0.5528,0.5547,0.5546,0.5561,0.556,0.5594,0.5577,0.5577,0.5577,0.5577,0,0.4932,0.4973,0.5026,0.5058,0.5104,0.5142,0.5187,0.5218,0.526,0.5298,0.5325,0.536,0.5406,0.5446,0.5475,0.5524,0.5537,0.5554,0.5562,0.5552,0.555,0.557,0.5569,0.5578,0.5578,0.5578,0.5577,0,0.4946,0.4984,0.5041,0.5099,0.5114,0.5145,0.5195,0.5226,0.5257,0.5304,0.5317,0.5366,0.5414,0.5454,0.5519,0.5538,0.5589,0.5598,0.5572,0.5576,0.5592,0.559,0.5642,0.565,0.5627,0.5627,0.5627,0,0.4968,0.5,0.506,0.5086,0.5115,0.5157,0.5188,0.5225,0.5255,0.5311,0.5335,0.5386,0.5428,0.5504,0.5545,0.5594,0.5604,0.5618,0.5612,0.56,0.5603,0.5601,0.5604,0.5619,0.5619,0.5619,0.5619,0,0.5003,0.5018,0.5061,0.5108,0.5143,0.5183,0.5224,0.5244,0.5288,0.5321,0.537,0.5402,0.5466,0.5515,0.5567,0.5598,0.5616,0.5621,0.5628,0.5619,0.5602,0.5611,0.5574,0.562,0.562,0.562,0.562,0.562,0.5022,0.505,0.5096,0.5141,0.5175,0.5211,0.5242,0.5275,0.5317,0.5371,0.539,0.544,0.5486,0.5557,0.5587,0.5627,0.5629,0.5639,0.5642,0.5644,0.5642,0.5595,0.5637,0.5637,0.5637,0.5637,0.5637,0,0.5057,0.5087,0.5128,0.5182,0.5217,0.5229,0.5273,0.5302,0.5345,0.5386,0.5425,0.5481,0.5527,0.5571,0.5619,0.5642,0.5652,0.5654,0.5653,0.5659,0.5638,0.5627,0.5645,0.5645,0.5645,0.5645,0.5645,0.5645,0.508,0.5128,0.5149,0.5213,0.5243,0.5291,0.5315,0.5348,0.5381,0.544,0.5479,0.5506,0.5547,0.5598,0.5641,0.5653,0.567,0.5669,0.5683,0.5663,0.5661,0.566,0.565,0.5673,0.5673,0.5701,0.5701,0.5702]}]]